Weather in Bajkonur

Kazakhstan     47°49′26″N   66°02′44″E
temp.,
°C
wind,
m/s
gust,
m/s
humid.,
%
clouds,
%
prec.,
mm/h
press.,
hPa
HPBL,
m
13 april, tue
tue1300:00+10ne714510 0.0 1027267
03:00+9ene916510 0.0 1027278
06:00+8ene916510 0.0 1027250
09:00+10ene1017460 0.0 1028360
12:00+15e11143140 0.0 1028630
15:00+19e1112251 0.0 10281177
18:00+18ene10122584 0.0 10281434
21:00+14ene101732100 0.0 1028638
14 april, wed
wed1400:00+11ene111973100 0.0 1029470
03:00+9e11197012 0.0 1028365
06:00+7e1017703 0.0 1029329
09:00+9e9166119 0.0 1029454
12:00+14e1113286 0.0 1028744
15:00+18e10132094 0.0 10261187
18:00+18e91324100 0.0 10241221
21:00+15ene91731100 0.0 1023664
15 april, thu
thu1500:00+12ene9184099 0.0 1023488
03:00+10ene9164596 0.0 1022362
06:00+9ene81650100 0.0 1022317
09:00+10ene91646100 0.0 1022495
12:00+16e111328100 0.0 1020836
15:00+18e101223100 0.0 10171271
18:00+19e71123100 0.0 10161686
21:00+16ne3331100 0.0 101542
16 april, fri
fri1600:00+14e71536100 0.0 1014377
03:00+12ene61145100 0.0 1012199
06:00+12ene61241100 0.0 1011245
09:00+13e61043100 0.0 1011329
12:00+17e663037 0.0 1010710
15:00+19s112746 0.0 10101826
18:00+20nw23255 0.0 10102379
21:00+17n33321 0.0 101126
17 april, sat
sat1700:00+14sse00393 0.0 101011
03:00+13ssw33360 0.0 101018
06:00+12s45411 0.0 101048
09:00+14ssw464020 0.0 1009171
12:00+19sw672667 0.0 10081534
15:00+21sw79244 0.0 10062817
18:00+21sw8925100 0.0 10043063
21:00+17wsw8133762 0.1 1004575